#timestamp,LO_Frequency,Hit,StdDev 
1681639215.5,286047005.7,P
1681639235.3,286047003.8,N
1681639255.2,286047003.5,N
1681639275.0,286047002.6,N
1681639275.9,286047002.6,N
1681639295.8,286047002.7,N
1681639315.6,286047002.8,N
1681639335.4,286047000.9,N
1681639355.3,286047002.9,N
1681639375.1,286047007.6,Y
1681639395.8,286047004.4,P
1681639415.7,286047003.4,P
1681639435.5,286047004.1,P
1681639455.4,286047002.5,Y
1681639475.2,286046998.4,P
1681639495.0,286047001.2,N
1681639495.9,286047001.2,N
1681639515.8,286046998.5,N
1681639535.6,286046998.4,N
1681639555.4,286047001.1,N
1681639575.3,286046999.0,N
1681639595.1,286046999.3,N
1681639615.9,286046996.6,N
1681639635.7,286046997.2,N
1681639655.5,286046996.5,N
1681639675.4,286046998.2,N
1681639695.2,286047001.0,N
1681639715.0,286046999.7,N
1681639715.9,286046999.7,N
1681639735.8,286047000.5,N
1681639755.6,286046998.1,N
1681639775.5,286046998.8,N
1681639795.3,286046999.6,N
1681639815.1,286046999.6,N
1681639835.9,286046997.3,N
1681639855.7,286046995.8,N
1681639875.5,286046997.6,N
1681639895.4,286046995.4,N
1681639915.2,286046995.5,N
1681639935.0,286046998.0,N
1681639935.9,286046998.0,N
1681639955.8,286046997.2,N
1681639975.6,286046999.5,N
1681639995.5,286046999.4,N
1681640015.3,286047000.9,N
1681640035.1,286047000.6,N
1681640055.9,286046999.4,N
1681640075.7,286046999.3,N
1681640095.5,286047000.6,N
1681640115.4,286047000.3,N
1681640135.2,286047000.4,N
1681640155.1,286046998.3,N
1681640156.0,286046998.3,N
1681640175.8,286046999.7,N
1681640195.6,286047002.3,N
1681640215.5,286046999.8,N
1681640235.3,286047000.5,N
1681640255.1,286046999.0,N
1681640275.9,286046998.5,N
1681640295.7,286046999.9,N
1681640315.5,286046998.7,N
1681640335.4,286047001.0,N
1681640355.2,286047000.7,N
1681640375.1,286047000.0,N
1681640376.0,286047000.0,N
1681640395.8,286047000.9,N
1681640415.6,286046996.6,N
1681640435.5,286046996.8,N
1681640455.3,286046996.8,N
1681640475.1,286046997.5,N
1681640495.9,286046999.3,N
1681640515.7,286046999.0,N
1681640535.6,286046999.5,N
1681640555.4,286046996.9,N
1681640575.2,286046999.1,N
1681640595.1,286047001.1,N
1681640596.0,286047001.1,N
1681640615.8,286047001.1,N
1681640635.6,286047001.2,N
1681640655.5,286046999.3,N
1681640675.3,286047000.4,N
1681640695.2,286047000.0,N
1681640715.9,286047002.1,N
1681640735.7,286047001.8,N
1681640755.6,286047001.3,N
1681640775.4,286047002.3,N
1681640795.2,286047002.2,N
1681640815.1,286047000.2,N
1681640816.0,286047000.2,N
1681640835.8,286047000.3,N
1681640855.7,286046996.8,N
1681640875.5,286046997.8,N
1681640895.3,286046995.2,N
1681640915.2,286046993.6,Y
1681640935.0,286046995.7,P
1681640935.9,286046995.7,N
1681640955.7,286046995.2,N
1681640975.6,286046997.8,N
1681640995.4,286046995.2,N
1681641015.3,286046993.4,Y
1681641035.1,286047001.2,P
1681641036.0,286047001.2,N
1681641055.8,286046999.8,N
1681641075.7,286047001.9,N
1681641095.5,286046999.9,N
1681641115.3,286046998.7,N
1681641135.2,286047000.5,N
1681641155.0,286047000.6,N
1681641155.9,286047000.6,N
1681641175.8,286046998.1,N
1681641195.6,286047000.3,N
1681641215.4,286047001.9,N
1681641235.3,286047000.3,N
1681641255.1,286047000.4,N
1681641275.8,286047000.0,N
1681641295.7,286047001.3,N
1681641315.5,286047004.3,Y
1681641335.4,286047002.1,P
1681641355.2,286047000.2,N
1681641375.0,286046999.0,N
1681641375.9,286046999.0,N
1681641395.8,286046996.7,N
1681641415.6,286046999.2,N
1681641435.4,286046998.7,N
1681641455.3,286047000.2,N
1681641475.1,286047002.0,N
1681641495.9,286047003.6,N
1681641515.7,286047001.5,N
1681641535.5,286047003.8,N
1681641555.4,286047007.1,Y
1681641575.2,286047006.0,P
1681641595.0,286047003.3,N
1681641595.9,286047003.3,N
1681641615.8,286047003.5,N
1681641635.6,286047002.2,N
1681641655.5,286047001.3,N
1681641675.3,286047002.8,N
1681641695.1,286047000.8,N
1681641715.9,286046998.7,N
1681641735.7,286046996.5,N
1681641755.5,286046996.7,N
1681641775.4,286046994.9,N
1681641795.2,286046996.2,N
1681641815.0,286046993.5,N
1681641816.0,286046993.5,N
1681641835.8,286046996.4,N
1681641855.6,286046997.8,N
1681641875.5,286046997.3,N
1681641895.3,286046996.9,N
1681641915.1,286046999.4,N
1681641935.9,286046998.4,N
1681641955.7,286047000.6,N
1681641975.5,286047001.1,N
1681641995.4,286047001.1,N
1681642015.2,286046998.9,N
1681642035.1,286046998.6,N
1681642036.0,286046998.6,N
1681642055.8,286046998.9,N
1681642075.6,286046997.8,N
1681642095.5,286046997.6,N
1681642115.3,286046997.2,N
1681642135.1,286046995.6,N
1681642155.9,286046995.5,N
1681642175.7,286046995.4,N
1681642195.6,286046995.3,N
1681642215.4,286046995.0,N
1681642235.2,286046995.4,N
1681642255.1,286046995.9,N
1681642256.0,286046995.9,N
1681642275.8,286046995.0,N
1681642295.6,286046995.5,N
1681642315.5,286046997.2,N
1681642335.3,286047000.7,N
1681642355.2,286047000.9,N
1681642375.9,286046999.4,N
1681642395.7,286047000.1,N
1681642415.6,286047002.2,N
1681642435.4,286047002.3,N
1681642455.2,286047000.4,N
1681642475.1,286046998.1,N
1681642476.0,286046998.1,N
1681642495.8,286047002.6,N
1681642515.7,286047001.5,N
1681642535.5,286047003.6,N
1681642555.3,286047003.5,N
1681642575.2,286047003.3,N
1681642595.0,286047005.6,N
1681642595.9,286047005.6,N
1681642615.7,286047006.8,N
1681642635.6,286047008.2,N
1681642655.4,286047008.0,N
1681642675.3,286047009.2,N
1681642695.1,286047010.6,N
1681642696.0,286047010.6,N
1681642715.8,286047007.9,N
1681642735.7,286047010.8,N
1681642755.5,286047010.7,N
1681642775.3,286047010.4,N
1681642795.2,286047010.6,N
